Wind_Speed
15 14 14 13 12 11 10 8 6 5 4 4 5 7 8 9 10 12 14 15 17 16 13 16 15 15 15 17 17 18 16 17
15 14 14 13 12 11 9 7 6 4 3 2 2 3 6 9 10 12 13 14 16 14 14 15 16 16 16 17 17 20 17 18
17 16 14 12 13 10 8 6 5 4 4 3 2 1 2 6 9 10 10 13 15 15 15 16 17 16 17 17 18 19 18 18
17 19 17 14 13 11 9 7 5 4 5 3 3 2 1 4 8 8 9 13 15 15 14 15 15 15 16 17 17 17 16 16
17 19 17 17 15 13 11 8 4 4 5 5 6 6 4 5 6 7 9 12 15 15 14 14 13 12 15 15 15 15 15 15
19 22 20 16 16 15 12 9 5 4 5 6 6 6 6 6 6 9 10 11 13 15 13 12 12 12 13 14 16 16 14 12
20 20 18 17 16 15 14 12 9 6 5 7 8 8 8 6 8 9 9 9 10 13 13 12 12 13 14 14 15 15 14 13
20 19 22 21 20 15 13 12 10 7 6 7 8 9 8 8 7 7 7 8 9 11 14 14 13 13 12 13 14 14 15 15
20 22 24 23 20 17 15 13 11 9 8 8 9 9 9 7 6 6 7 7 9 10 12 13 14 14 13 12 12 13 14 14
19 22 22 20 20 22 18 15 13 11 10 9 9 8 7 6 5 6 7 9 8 10 12 14 14 14 13 12 14 14 14 15
17 17 21 20 26 22 16 14 14 12 10 9 10 7 6 6 7 8 9 9 9 10 11 13 13 15 15 13 14 16 14 16
15 15 20 20 23 22 20 16 16 14 11 11 10 8 7 7 9 11 10 9 10 11 11 12 14 15 16 15 15 17 16 16
11 18 20 20 21 20 23 21 18 16 15 13 11 10 7 9 11 11 11 10 9 10 11 11 13 16 15 16 16 17 18 18
9 14 18 20 20 23 25 22 19 19 18 16 12 10 9 11 12 11 12 12 11 11 11 12 12 14 15 15 16 16 17 16
12 10 15 20 19 23 19 19 19 19 19 17 15 12 10 11 11 11 11 12 13 14 14 15 12 13 15 15 16 17 17 17
13 14 14 20 20 20 19 20 20 19 18 16 15 13 11 10 11 11 11 10 11 12 13 14 14 13 15 16 18 17 18 19
13 13 17 21 23 23 22 22 22 20 18 16 15 13 12 10 9 9 9 9 9 9 12 14 14 14 14 15 15 16 17 19
14 15 18 23 25 25 24 24 22 21 18 16 15 14 14 11 9 8 7 6 7 8 9 8 11 13 13 12 14 15 16 18
11 12 18 21 23 23 21 22 22 21 18 17 16 15 14 12 10 8 6 5 5 6 7 8 9 11 10 11 11 13 15 17
Wind_Direction
159 153 150 148 145 138 129 120 113 113 95 67 49 40 38 30 26 21 15 13 12 10 3 359 358 356 352 349 345 340 334 335
158 154 152 148 146 147 142 133 114 107 94 60 28 38 32 26 24 14 16 14 13 11 9 3 2 359 354 351 348 344 343 339
162 159 158 158 157 159 143 124 103 88 81 78 109 102 42 31 22 16 12 12 15 15 12 5 3 355 356 356 356 348 341 346
170 168 165 164 164 157 154 150 133 97 81 87 117 113 86 28 21 13 12 15 13 14 17 9 4 2 358 356 357 356 341 342
171 169 171 172 169 165 162 153 129 96 99 105 99 91 91 42 26 14 16 19 15 12 13 13 8 5 3 1 356 354 353 348
173 179 176 174 169 166 160 158 140 114 100 85 84 84 72 55 24 25 23 24 22 24 11 9 11 16 11 8 4 2 358 356
175 175 170 169 168 170 169 165 146 136 101 91 85 83 66 54 34 27 23 24 21 20 14 13 13 13 16 19 13 8 4 4
173 175 178 175 177 171 163 169 143 134 117 99 91 76 72 57 43 34 31 28 19 14 16 19 17 12 15 22 21 13 10 14
178 182 182 181 175 166 177 160 148 148 129 113 94 78 63 61 50 53 45 40 27 25 23 24 24 23 19 20 24 17 9 11
182 184 184 176 170 180 174 161 153 154 141 119 92 83 82 76 66 66 60 51 43 34 31 29 27 27 25 22 28 26 14 16
185 178 172 172 181 177 168 162 158 155 136 120 112 105 100 91 79 70 63 55 45 39 33 31 29 31 29 29 29 28 21 19
181 166 169 168 176 173 168 165 163 153 145 132 121 119 115 100 83 71 64 59 52 47 42 39 36 37 34 35 36 31 30 22
162 161 162 168 171 171 175 171 166 164 153 140 135 125 119 98 83 74 68 64 60 55 52 49 43 41 37 38 38 35 31 24
156 165 175 172 176 174 174 172 168 167 161 156 146 135 119 99 89 82 75 71 68 66 60 53 48 42 40 39 41 38 33 29
169 173 179 179 178 180 173 170 172 169 169 167 159 147 124 105 96 87 81 76 73 71 69 66 56 49 44 43 44 43 39 33
189 187 182 178 178 179 177 175 175 175 173 172 170 157 137 118 102 91 83 78 76 76 73 67 63 51 43 42 48 46 42 36
195 188 184 183 179 181 182 177 180 179 179 176 173 164 157 139 117 103 91 85 81 78 75 69 61 52 47 45 46 45 42 37
186 185 187 185 183 182 182 180 179 181 181 179 176 170 172 161 144 126 106 90 84 75 68 59 56 48 42 42 42 43 41 36
173 174 182 184 181 181 178 175 178 181 180 177 175 174 172 168 161 146 127 105 88 79 64 56 57 40 45 40 46 45 44 42
Height
817 820 824 827 830 832 833 834 835 834 834 834 834 834 833 833 832 830 828 826 824 821 820 817 813 810 805 802 796 792 787 782
816 821 825 828 830 831 832 833 834 834 833 834 835 836 836 835 833 832 829 827 824 822 819 817 814 810 806 802 797 791 786 781
814 818 823 827 829 830 832 834 834 835 833 833 833 834 834 833 832 833 832 829 823 821 819 817 815 812 807 802 798 793 787 784
811 815 818 822 827 829 831 832 833 833 832 832 832 832 833 833 832 833 830 827 824 821 819 817 816 812 809 804 800 796 792 786
807 813 816 818 823 826 829 831 833 832 831 831 830 831 832 831 832 833 830 825 823 822 820 817 816 813 810 805 803 800 795 789
804 809 813 818 822 825 827 829 831 832 832 830 830 832 831 830 833 829 828 826 824 822 823 820 817 812 809 806 802 800 797 794
802 809 813 817 821 824 824 826 828 830 830 829 830 830 831 831 830 830 829 827 827 826 823 820 816 813 809 805 803 802 799 795
794 803 808 813 817 821 824 827 827 828 829 829 830 830 831 830 831 831 830 828 828 826 824 820 816 814 810 806 804 804 801 797
789 797 802 808 814 817 824 825 826 828 828 830 828 829 831 832 833 831 830 829 828 827 824 821 817 814 811 808 805 804 802 798
787 793 799 806 811 816 819 821 823 826 827 828 827 830 834 834 833 831 829 828 828 827 824 821 819 816 813 812 807 803 803 799
784 791 796 802 808 814 817 819 823 826 825 827 827 832 835 835 833 830 829 829 828 827 825 823 821 818 815 813 808 804 803 800
778 788 795 800 806 809 813 818 819 823 825 828 830 833 835 835 831 829 829 829 829 828 827 826 823 819 817 814 810 806 804 803
776 784 792 799 802 805 809 813 817 821 824 828 831 833 835 833 830 829 829 830 830 829 829 828 825 822 819 816 812 809 806 805
779 783 788 795 799 802 805 810 815 820 823 827 830 832 833 832 830 830 830 831 831 830 830 829 827 825 822 818 814 811 809 808
772 780 785 791 795 800 804 808 813 819 822 825 827 830 831 831 830 830 832 832 832 831 831 830 829 827 824 821 817 814 812 810
767 773 778 784 790 797 802 807 812 817 821 823 826 828 830 831 831 831 832 833 834 834 833 832 830 829 827 823 819 817 815 813
760 767 773 778 782 791 798 801 808 814 817 820 824 826 829 830 831 833 833 834 835 835 834 833 832 831 829 826 822 820 818 815
752 757 765 771 776 785 791 797 804 810 814 817 821 823 827 829 831 833 834 835 836 836 836 835 834 832 830 827 824 822 821 818
746 754 760 766 774 781 788 794 800 805 810 814 818 821 824 828 831 832 834 836 836 836 836 836 835 833 831 829 827 825 823 820